This is the latest recevied weather packets stored in our database for station/object IK3ZGB. If no packets are shown the sender has not sent any weather packets the latest 10 day(s).
| Time | Temp. | Humidity | Pressure | Rain* | Wind** | Luminosity | Snow |
|---|---|---|---|---|---|---|---|
| 1777685325 | 12.22° C | 63% | 1028.2 hPa | - | - | - | - |
| 1777684724 | 12.22° C | 63% | 1028.1 hPa | - | - | - | - |
| 1777684126 | 12.22° C | 63% | 1028.1 hPa | - | - | - | - |
| 1777683525 | 12.78° C | 62% | 1028.2 hPa | - | - | - | - |
| 1777682925 | 12.78° C | 61% | 1028.1 hPa | - | - | - | - |
| 1777682325 | 12.78° C | 61% | 1028.4 hPa | - | - | - | - |
| 1777681724 | 12.78° C | 60% | 1028.2 hPa | - | - | - | - |
| 1777681126 | 13.33° C | 60% | 1028.1 hPa | - | - | - | - |
| 1777680524 | 12.78° C | 60% | 1028.1 hPa | - | - | - | - |
| 1777679925 | 12.78° C | 60% | 1028.3 hPa | - | - | - | - |
| 1777679324 | 12.78° C | 60% | 1028.3 hPa | - | - | - | - |
| 1777678725 | 13.33° C | 58% | 1028.3 hPa | - | - | - | - |
| 1777678124 | 13.33° C | 58% | 1028.3 hPa | - | - | - | - |
| 1777677525 | 13.89° C | 58% | 1028.2 hPa | - | - | - | - |
| 1777676925 | 13.33° C | 58% | 1028.4 hPa | - | - | - | - |
| 1777676325 | 13.89° C | 59% | 1028.4 hPa | - | - | - | - |
| 1777675724 | 13.33° C | 60% | 1028.1 hPa | - | - | - | - |
| 1777675124 | 13.89° C | 60% | 1027.9 hPa | - | - | - | - |
| 1777674525 | 14.44° C | 59% | 1028.3 hPa | - | - | - | - |
| 1777673924 | 13.89° C | 59% | 1028.1 hPa | - | - | - | - |
| 1777673325 | 13.89° C | 59% | 1028 hPa | - | - | - | - |
| 1777672724 | 13.89° C | 59% | 1027.8 hPa | - | - | - | - |
| 1777672125 | 14.44° C | 58% | 1027.7 hPa | - | - | - | - |
| 1777671524 | 14.44° C | 58% | 1027.8 hPa | - | - | - | - |
| 1777670924 | 15° C | 57% | 1027.6 hPa | - | - | - | - |
* Rain since midnight (hover to see other rain measurements)
** Current wind speed in m/s (hover to see current wind gust speed)